| time (UTC) | temp F | wind direction | speed MPH | gust MPH | rain 1hr in | rain 24hr in | rain mn in | humidity % | barometer mb |
| 20260902163112 | 82 | 180 | 1.0 | 6.0 | 0.00 | 0.00 | 0.00 | 28 | 1019.6 |
| 20260902162112 | 83 | 223 | 1.0 | 4.0 | 0.00 | 0.00 | 0.00 | 26 | 1019.6 |
| 20260902161112 | 83 | 129 | 3.0 | 4.0 | 0.00 | 0.00 | 0.00 | 26 | 1019.6 |
| 20260902160112 | 83 | 127 | 0.0 | 2.0 | 0.00 | 0.00 | 0.00 | 26 | 1019.7 |
| 20260902155112 | 84 | 155 | 1.0 | 3.0 | 0.00 | 0.00 | 0.00 | 25 | 1019.5 |
| 20260902154112 | 84 | 171 | 1.0 | 4.0 | 0.00 | 0.00 | 0.00 | 24 | 1019.5 |
| 20260902153112 | 84 | 260 | 2.0 | 2.0 | 0.00 | 0.00 | 0.00 | 23 | 1019.6 |
| 20260902152112 | 84 | 311 | 2.0 | 6.0 | 0.00 | 0.00 | 0.00 | 25 | 1019.6 |
| 20260902151112 | 84 | 9 | 4.0 | 8.0 | 0.00 | 0.00 | 0.00 | 24 | 1019.8 |
| 20260902150112 | 84 | 291 | 4.0 | 10.0 | 0.00 | 0.00 | 0.00 | 24 | 1019.8 |
| 20260902145112 | 84 | 42 | 1.0 | 3.0 | 0.00 | 0.00 | 0.00 | 24 | 1019.8 |
| 20260902144112 | 84 | 5 | 5.0 | 8.0 | 0.00 | 0.00 | 0.00 | 22 | 1019.8 |
| 20260902143112 | 86 | 360 | 3.0 | 10.0 | 0.00 | 0.00 | 0.00 | 21 | 1019.9 |
| 20260902142112 | 86 | 332 | 1.0 | 8.0 | 0.00 | 0.00 | 0.00 | 23 | 1020.1 |
| 20260902141112 | 85 | 311 | 5.0 | 10.0 | 0.00 | 0.00 | 0.00 | 22 | 1020.2 |
| 20260902140112 | 85 | 338 | 10.0 | 12.0 | 0.00 | 0.00 | 0.00 | 22 | 1020.2 |
| 20260902135112 | 86 | 355 | 4.0 | 10.0 | 0.00 | 0.00 | 0.00 | 23 | 1020.4 |
| 20260902134112 | 86 | 254 | 2.0 | 8.0 | 0.00 | 0.00 | 0.00 | 21 | 1020.5 |
| 20260902133112 | 86 | 263 | 6.0 | 9.0 | 0.00 | 0.00 | 0.00 | 23 | 1020.5 |
| 20260902132112 | 85 | 71 | 3.0 | 8.0 | 0.00 | 0.00 | 0.00 | 24 | 1020.7 |
| 20260902131112 | 85 | 286 | 2.0 | 10.0 | 0.00 | 0.00 | 0.00 | 22 | 1020.6 |
| 20260902130112 | 84 | 285 | 5.0 | 10.0 | 0.00 | 0.00 | 0.00 | 26 | 1020.7 |
| 20260902125112 | 84 | 236 | 4.0 | 11.0 | 0.00 | 0.00 | 0.00 | 24 | 1020.8 |
| 20260902124112 | 84 | 221 | 8.0 | 15.0 | 0.00 | 0.00 | 0.00 | 27 | 1020.9 |
| 20260902123112 | 83 | 355 | 4.0 | 11.0 | 0.00 | 0.00 | 0.00 | 25 | 1020.9 |
| 20260902122111 | 84 | 350 | 6.0 | 13.0 | 0.00 | 0.00 | 0.00 | 24 | 1021.1 |
| 20260902121112 | 83 | 17 | 4.0 | 6.0 | 0.00 | 0.00 | 0.00 | 24 | 1021.3 |
| 20260902120112 | 83 | 275 | 7.0 | 11.0 | 0.00 | 0.00 | 0.00 | 26 | 1021.4 |
| 20260902115112 | 83 | 236 | 9.0 | 13.0 | 0.00 | 0.00 | 0.00 | 26 | 1021.4 |
| 20260902114112 | 84 | 179 | 5.0 | 8.0 | 0.00 | 0.00 | 0.00 | 26 | 1021.5 |
| 20260902113112 | 84 | 157 | 8.0 | 14.0 | 0.00 | 0.00 | 0.00 | 27 | 1021.7 |
| 20260902112111 | 83 | 239 | 1.0 | 7.0 | 0.00 | 0.00 | 0.00 | 27 | 1021.8 |
| 20260902111111 | 83 | 198 | 5.0 | 14.0 | 0.00 | 0.00 | 0.00 | 29 | 1021.9 |
| 20260902110111 | 82 | 189 | 6.0 | 13.0 | 0.00 | 0.00 | 0.00 | 30 | 1021.9 |
| 20260902105111 | 82 | 129 | 3.0 | 10.0 | 0.00 | 0.00 | 0.00 | 31 | 1022.2 |
| 20260902104111 | 82 | 190 | 8.0 | 11.0 | 0.00 | 0.00 | 0.00 | 31 | 1022.3 |
| 20260902103112 | 81 | 185 | 6.0 | 9.0 | 0.00 | 0.00 | 0.00 | 31 | 1022.5 |
| 20260902102112 | 81 | 209 | 7.0 | 9.0 | 0.00 | 0.00 | 0.00 | 33 | 1022.6 |
| 20260902101111 | 80 | 236 | 3.0 | 9.0 | 0.00 | 0.00 | 0.00 | 32 | 1022.5 |
| 20260902100111 | 80 | 148 | 4.0 | 9.0 | 0.00 | 0.00 | 0.00 | 33 | 1022.7 |
| 20260902095111 | 80 | 166 | 7.0 | 9.0 | 0.00 | 0.00 | 0.00 | 34 | 1022.8 |
| 20260902094111 | 79 | 199 | 3.0 | 9.0 | 0.00 | 0.00 | 0.00 | 35 | 1022.9 |
| 20260902093112 | 79 | 146 | 2.0 | 8.0 | 0.00 | 0.00 | 0.00 | 36 | 1023.0 |
| 20260902092111 | 78 | 155 | 3.0 | 10.0 | 0.00 | 0.00 | 0.00 | 38 | 1023.1 |
| 20260902091111 | 77 | 152 | 3.0 | 7.0 | 0.00 | 0.00 | 0.00 | 40 | 1023.1 |
| 20260902090111 | 75 | 180 | 6.0 | 8.0 | 0.00 | 0.00 | 0.00 | 41 | 1023.0 |
| 20260902085111 | 74 | 49 | 2.0 | 4.0 | 0.00 | 0.00 | 0.00 | 43 | 1023.1 |
| 20260902084111 | 74 | 30 | 0.0 | 4.0 | 0.00 | 0.00 | 0.00 | 43 | 1023.1 |
| 20260902083111 | 72 | 112 | 0.0 | 1.0 | 0.00 | 0.00 | 0.00 | 44 | 1023.1 |
| 20260902082111 | 71 | 12 | 0.0 | 3.0 | 0.00 | 0.00 | 0.00 | 46 | 1023.2 |
| 20260902081111 | 71 | 132 | 2.0 | 3.0 | 0.00 | 0.00 | 0.00 | 47 | 1023.2 |
| 20260902080111 | 70 | 154 | 1.0 | 2.0 | 0.00 | 0.00 | 0.00 | 48 | 1023.2 |
| 20260902075111 | 69 | 154 | 0.0 | 0.0 | 0.00 | 0.00 | 0.00 | 47 | 1023.2 |
| 20260902074111 | 69 | 155 | 1.0 | 2.0 | 0.00 | 0.00 | 0.00 | 50 | 1023.1 |
| 20260902073111 | 69 | 133 | 0.0 | 1.0 | 0.00 | 0.00 | 0.00 | 49 | 1023.0 |
| 20260902072111 | 68 | 134 | 0.0 | 2.0 | 0.00 | 0.00 | 0.00 | 49 | 1022.9 |
| 20260902071111 | 67 | 134 | 1.0 | 2.0 | 0.00 | 0.00 | 0.00 | 53 | 1023.3 |
| 20260902070111 | 65 | 136 | 1.0 | 3.0 | 0.00 | 0.00 | 0.00 | 55 | 1022.6 |
| 20260902065111 | 64 | 138 | 1.0 | 4.0 | 0.00 | 0.00 | 0.00 | 58 | 1022.6 |
| 20260902064111 | 62 | 297 | 0.0 | 1.0 | 0.00 | 0.00 | 0.00 | 59 | 1022.7 |
| 20260902063111 | 61 | 298 | 0.0 | 0.0 | 0.00 | 0.00 | 0.00 | 60 | 1022.7 |
| 20260902062111 | 60 | 298 | 0.0 | 0.0 | 0.00 | 0.00 | 0.00 | 61 | 1022.7 |
| 20260902061111 | 58 | 298 | 0.0 | 0.0 | 0.00 | 0.00 | 0.00 | 64 | 1022.6 |
| 20260902060111 | 58 | 298 | 0.0 | 2.0 | 0.00 | 0.00 | 0.00 | 66 | 1022.7 |
| 20260902055111 | 57 | 298 | 0.0 | 0.0 | 0.00 | 0.00 | 0.00 | 66 | 1022.7 |
| 20260902054110 | 57 | 298 | 0.0 | 2.0 | 0.00 | 0.00 | 0.00 | 66 | 1022.7 |
| 20260902053111 | 57 | 35 | 2.0 | 3.0 | 0.00 | 0.00 | 0.00 | 67 | 1022.7 |
| 20260902052111 | 56 | 323 | 1.0 | 3.0 | 0.00 | 0.00 | 0.00 | 68 | 1022.7 |
| 20260902051111 | 56 | 319 | 0.0 | 0.0 | 0.00 | 0.00 | 0.00 | 68 | 1022.6 |
| 20260902050110 | 56 | 319 | 0.0 | 0.0 | 0.00 | 0.00 | 0.00 | 68 | 1022.5 |
| 20260902045111 | 56 | 319 | 0.0 | 0.0 | 0.00 | 0.00 | 0.00 | 68 | 1022.6 |
| 20260902044110 | 56 | 319 | 0.0 | 0.0 | 0.00 | 0.00 | 0.00 | 68 | 1022.7 |
| 20260902043110 | 56 | 319 | 0.0 | 0.0 | 0.00 | 0.00 | 0.00 | 68 | 1022.5 |
| 20260902042110 | 55 | 319 | 0.0 | 0.0 | 0.00 | 0.00 | 0.00 | 68 | 1022.7 |
| 20260902041110 | 55 | 319 | 0.0 | 0.0 | 0.00 | 0.00 | 0.00 | 68 | 1022.5 |
| 20260902040110 | 55 | 319 | 0.0 | 2.0 | 0.00 | 0.00 | 0.00 | 68 | 1022.5 |
| 20260902035111 | 55 | 318 | 1.0 | 3.0 | 0.00 | 0.00 | 0.00 | 68 | 1022.4 |
| 20260902034110 | 55 | 344 | 5.0 | 6.0 | 0.00 | 0.00 | 0.00 | 68 | 1022.5 |
| 20260902033110 | 54 | 309 | 2.0 | 3.0 | 0.00 | 0.00 | 0.00 | 68 | 1022.5 |
| 20260902032110 | 55 | 309 | 2.0 | 3.0 | 0.00 | 0.00 | 0.00 | 68 | 1022.4 |
| 20260902031110 | 55 | 309 | 2.0 | 3.0 | 0.00 | 0.00 | 0.00 | 67 | 1022.5 |
| 20260902030110 | 55 | 309 | 3.0 | 5.0 | 0.00 | 0.00 | 0.00 | 67 | 1022.6 |
| 20260902025110 | 55 | 300 | 0.0 | 0.0 | 0.00 | 0.01 | 0.00 | 67 | 1022.4 |
| 20260902024110 | 55 | 300 | 0.0 | 0.0 | 0.00 | 0.01 | 0.00 | 67 | 1022.4 |
| 20260902023110 | 55 | 300 | 0.0 | 0.0 | 0.00 | 0.01 | 0.00 | 67 | 1022.5 |
| 20260902022110 | 55 | 300 | 2.0 | 5.0 | 0.00 | 0.01 | 0.00 | 66 | 1022.5 |
| 20260902021111 | 56 | 298 | 4.0 | 4.0 | 0.00 | 0.01 | 0.00 | 66 | 1022.5 |
| 20260902020110 | 56 | 295 | 3.0 | 4.0 | 0.00 | 0.01 | 0.00 | 66 | 1022.3 |
| 20260902015110 | 56 | 273 | 1.0 | 2.0 | 0.00 | 0.01 | 0.00 | 66 | 1022.3 |
| 20260902014110 | 56 | 273 | 0.0 | 0.0 | 0.00 | 0.01 | 0.00 | 65 | 1022.4 |
| 20260902013110 | 56 | 273 | 0.0 | 1.0 | 0.00 | 0.01 | 0.00 | 64 | 1022.6 |
| 20260902012110 | 57 | 273 | 1.0 | 3.0 | 0.00 | 0.01 | 0.00 | 64 | 1022.7 |
| 20260902011110 | 57 | 332 | 1.0 | 3.0 | 0.00 | 0.01 | 0.00 | 64 | 1022.5 |
| 20260902010110 | 57 | 332 | 2.0 | 3.0 | 0.00 | 0.01 | 0.00 | 63 | 1022.5 |
| 20260902005109 | 57 | 332 | 3.0 | 5.0 | 0.00 | 0.01 | 0.00 | 63 | 1022.4 |
| 20260902004110 | 57 | 338 | 4.0 | 5.0 | 0.00 | 0.01 | 0.00 | 63 | 1022.3 |
| 20260902003110 | 57 | 326 | 4.0 | 5.0 | 0.00 | 0.01 | 0.00 | 63 | 1022.4 |
| 20260902002109 | 57 | 327 | 4.0 | 5.0 | 0.00 | 0.01 | 0.00 | 62 | 1022.5 |
| 20260902001109 | 57 | 327 | 3.0 | 5.0 | 0.00 | 0.01 | 0.00 | 63 | 1022.7 |
| 20260902000109 | 58 | 328 | 2.0 | 4.0 | 0.00 | 0.01 | 0.00 | 62 | 1022.7 |
| 20260901235109 | 58 | 327 | 2.0 | 3.0 | 0.00 | 0.01 | 0.00 | 61 | 1022.6 |
| 20260901234109 | 58 | 327 | 2.0 | 5.0 | 0.00 | 0.01 | 0.00 | 60 | 1022.6 |
| 20260901233109 | 59 | 338 | 4.0 | 5.0 | 0.00 | 0.01 | 0.00 | 59 | 1022.7 |
| 20260901232109 | 59 | 336 | 3.0 | 6.0 | 0.00 | 0.01 | 0.00 | 59 | 1022.6 |
| 20260901231109 | 59 | 338 | 3.0 | 5.0 | 0.00 | 0.01 | 0.00 | 59 | 1022.5 |
| 20260901230109 | 59 | 346 | 4.0 | 6.0 | 0.00 | 0.01 | 0.00 | 59 | 1022.6 |
| 20260901225109 | 59 | 322 | 4.0 | 5.0 | 0.00 | 0.01 | 0.00 | 58 | 1022.6 |
| 20260901224109 | 59 | 308 | 2.0 | 3.0 | 0.00 | 0.01 | 0.00 | 58 | 1022.6 |
| 20260901223109 | 59 | 308 | 3.0 | 5.0 | 0.00 | 0.01 | 0.00 | 57 | 1022.5 |
| 20260901222109 | 60 | 298 | 0.0 | 0.0 | 0.00 | 0.01 | 0.00 | 57 | 1022.6 |
| 20260901221109 | 60 | 298 | 3.0 | 4.0 | 0.00 | 0.01 | 0.00 | 56 | 1022.6 |
| 20260901220109 | 60 | 308 | 3.0 | 4.0 | 0.00 | 0.01 | 0.00 | 56 | 1022.5 |
| 20260901215109 | 60 | 307 | 3.0 | 4.0 | 0.00 | 0.03 | 0.03 | 54 | 1022.5 |
| 20260901214109 | 61 | 342 | 3.0 | 4.0 | 0.00 | 0.03 | 0.03 | 54 | 1022.5 |
| 20260901213114 | 61 | 328 | 2.0 | 4.0 | 0.00 | 0.03 | 0.03 | 54 | 1022.6 |
| 20260901212114 | 61 | 315 | 2.0 | 4.0 | 0.00 | 0.03 | 0.03 | 54 | 1022.3 |
| 20260901211114 | 62 | 316 | 4.0 | 6.0 | 0.00 | 0.03 | 0.03 | 53 | 1022.3 |
| 20260901210114 | 62 | 323 | 2.0 | 3.0 | 0.00 | 0.03 | 0.03 | 52 | 1022.3 |
| 20260901205114 | 63 | 323 | 3.0 | 4.0 | 0.00 | 0.06 | 0.03 | 51 | 1022.4 |
| 20260901204114 | 63 | 338 | 5.0 | 5.0 | 0.00 | 0.06 | 0.03 | 51 | 1022.3 |
| 20260901203114 | 64 | 337 | 3.0 | 5.0 | 0.00 | 0.06 | 0.03 | 51 | 1022.1 |
| 20260901202114 | 64 | 335 | 3.0 | 5.0 | 0.00 | 0.06 | 0.03 | 50 | 1022.1 |
| 20260901201114 | 64 | 319 | 5.0 | 6.0 | 0.00 | 0.06 | 0.03 | 49 | 1022.1 |
| 20260901200114 | 65 | 319 | 3.0 | 5.0 | 0.00 | 0.06 | 0.03 | 49 | 1021.9 |
| 20260901195114 | 65 | 317 | 3.0 | 5.0 | 0.00 | 0.06 | 0.03 | 48 | 1022.0 |
| 20260901194113 | 65 | 323 | 5.0 | 6.0 | 0.00 | 0.06 | 0.03 | 48 | 1022.0 |
| 20260901193114 | 65 | 327 | 5.0 | 6.0 | 0.00 | 0.06 | 0.03 | 47 | 1021.9 |
| 20260901192114 | 65 | 329 | 4.0 | 6.0 | 0.00 | 0.06 | 0.03 | 48 | 1021.7 |
| 20260901191114 | 66 | 323 | 2.0 | 3.0 | 0.00 | 0.06 | 0.03 | 48 | 1021.7 |
| 20260901190113 | 66 | 321 | 3.0 | 4.0 | 0.00 | 0.06 | 0.03 | 47 | 1021.5 |
| 20260901185113 | 66 | 323 | 4.0 | 6.0 | 0.00 | 0.06 | 0.03 | 46 | 1021.4 |
| 20260901184113 | 67 | 333 | 3.0 | 5.0 | 0.00 | 0.06 | 0.03 | 46 | 1021.4 |
| 20260901183113 | 68 | 316 | 3.0 | 4.0 | 0.00 | 0.06 | 0.03 | 47 | 1021.2 |
| 20260901182113 | 68 | 317 | 3.0 | 4.0 | 0.00 | 0.06 | 0.03 | 42 | 1021.1 |
| 20260901181113 | 69 | 317 | 3.0 | 4.0 | 0.00 | 0.06 | 0.03 | 43 | 1021.1 |
| 20260901180113 | 70 | 323 | 0.0 | 0.0 | 0.00 | 0.06 | 0.03 | 42 | 1020.9 |
| 20260901175113 | 72 | 330 | 0.0 | 0.0 | 0.00 | 0.06 | 0.03 | 41 | 1020.6 |
| 20260901174113 | 73 | 355 | 0.0 | 0.0 | 0.00 | 0.06 | 0.03 | 38 | 1020.6 |
| 20260901173113 | 74 | 355 | 0.0 | 0.0 | 0.00 | 0.06 | 0.03 | 35 | 1020.5 |
| 20260901172113 | 76 | 355 | 0.0 | 0.0 | 0.00 | 0.06 | 0.03 | 35 | 1020.7 |
| 20260901171113 | 76 | 351 | 0.0 | 1.0 | 0.00 | 0.06 | 0.03 | 33 | 1020.6 |
| 20260901170113 | 77 | 360 | 2.0 | 5.0 | 0.00 | 0.06 | 0.03 | 31 | 1020.5 |
| 20260901165113 | 77 | 349 | 3.0 | 5.0 | 0.00 | 0.06 | 0.03 | 29 | 1020.4 |
| 20260901164113 | 78 | 5 | 3.0 | 5.0 | 0.00 | 0.06 | 0.03 | 29 | 1020.7 |